Date String (YYYY-MM-DD hh:mm:ss) UTC,Instrument flags,Ambient pressure (hPa),Sample flow (lpm),Bypass flow (lpm),Sample temperature (°C),Ambient temperature (°C),ASC tube jacket temperature (°C),LED temperature (°C),Box temperature (°C),Sample RH (%),Span deviation,Mass concentration (μg/m³),Mass concentration (μg/m³),Mass concentration (μg/m³)
DateTimeUTC,F1_M11,P_M11,Q1_M11,Q2_M11,T1_M11,T2_M11,T3_M11,T4_M11,T5_M11,U1_M11,ZSPAN_M11,X0_M11,X2_M11,X1_M11
2022-09-04 16:00:00,,0831.5,4.99,0.00,30.0,27.0,00.0,38.7,31.7,23.9,0000.0,0017.41,0007.26,0006.32
2022-09-04 16:01:00,,0831.5,5.00,0.00,29.9,27.3,00.0,38.7,31.6,24.0,0000.0,0017.04,0007.22,0006.32
2022-09-04 16:02:00,,0831.5,5.00,0.00,29.9,27.6,00.0,38.7,31.7,24.1,0000.0,0016.85,0007.20,0006.34
2022-09-04 16:03:00,,0831.5,5.00,0.00,29.9,27.9,00.0,38.7,31.7,25.1,0000.0,0016.25,0007.17,0006.32
2022-09-04 16:04:00,,0831.5,5.00,0.00,29.9,28.2,00.0,38.7,31.7,24.8,0000.0,0015.97,0007.16,0006.31
2022-09-04 16:05:00,,0831.5,5.00,0.00,29.9,28.4,00.0,38.7,31.8,24.1,0000.0,0015.85,0007.16,0006.31
2022-09-04 16:06:00,,0831.5,5.01,0.00,29.9,28.6,00.0,38.7,31.8,24.6,0000.0,0015.95,0007.15,0006.31
2022-09-04 16:07:00,,0831.5,5.00,0.00,30.0,28.7,00.0,38.7,31.9,25.2,0000.0,0015.52,0007.14,0006.32
2022-09-04 16:08:00,,0831.5,5.00,0.00,30.0,28.8,00.0,38.7,31.9,24.8,0000.0,0016.08,0007.14,0006.32
2022-09-04 16:09:00,,0831.5,4.99,0.00,30.0,28.9,00.0,38.7,31.9,24.8,0000.0,0015.06,0007.14,0006.30
2022-09-04 16:10:00,,0831.5,5.01,0.00,30.0,29.0,00.0,38.7,32.0,24.5,0000.0,0014.15,0007.10,0006.29
2022-09-04 16:11:00,,0831.6,4.97,0.00,30.1,28.6,00.0,38.8,32.0,24.6,0000.0,0013.92,0007.08,0006.28
2022-09-04 16:12:00,,0831.5,5.01,0.00,30.1,27.5,00.0,38.7,31.8,24.2,0000.0,0014.73,0007.12,0006.28
2022-09-04 16:13:00,,0831.5,5.01,0.00,30.0,26.9,00.0,38.7,31.8,23.9,0000.0,0015.50,0007.15,0006.28
2022-09-04 16:14:00,,0831.5,5.00,0.00,30.0,27.1,00.0,38.7,31.7,24.8,0000.0,0015.13,0007.17,0006.29
2022-09-04 16:15:00,,0831.4,5.00,0.00,29.9,27.4,00.0,38.6,31.6,24.8,0000.0,0014.65,0007.19,0006.31
2022-09-04 16:16:00,,0831.4,4.99,0.00,29.9,27.7,00.0,38.6,31.6,24.8,0000.0,0014.41,0007.21,0006.31
2022-09-04 16:17:00,,0831.5,5.02,0.00,29.9,28.0,00.0,38.6,31.7,24.9,0000.0,0014.83,0007.23,0006.31
2022-09-04 16:18:00,,0831.4,5.00,0.00,29.9,28.3,00.0,38.6,31.7,24.6,0000.0,0015.88,0007.24,0006.30
2022-09-04 16:19:00,,0831.5,5.01,0.00,29.9,28.4,00.0,38.6,31.7,24.6,0000.0,0015.66,0007.23,0006.30
2022-09-04 16:20:00,,0831.5,4.98,0.00,29.9,28.6,00.0,38.6,31.7,24.0,0000.0,0015.94,0007.23,0006.31
2022-09-04 16:21:00,,0831.4,5.01,0.00,29.9,28.7,00.0,38.6,31.8,24.8,0000.0,0016.06,0007.27,0006.32
2022-09-04 16:22:00,,0831.4,4.99,0.00,30.0,28.9,00.0,38.7,31.9,25.0,0000.0,0016.04,0007.29,0006.33
2022-09-04 16:23:00,,0831.4,5.01,0.00,30.0,29.0,00.0,38.7,31.9,24.3,0000.0,0015.40,0007.23,0006.33
2022-09-04 16:24:00,,0831.5,5.00,0.00,30.0,28.4,00.0,38.7,31.9,25.0,0000.0,0014.65,0007.26,0006.34
2022-09-04 16:25:00,,0831.5,5.00,0.00,30.0,27.3,00.0,38.7,31.8,25.4,0000.0,0015.06,0007.27,0006.35
2022-09-04 16:26:00,,0831.4,4.99,0.00,29.9,27.0,00.0,38.6,31.7,25.5,0000.0,0015.01,0007.27,0006.36
2022-09-04 16:27:00,,0831.4,5.00,0.00,29.9,27.2,00.0,38.6,31.6,26.1,0000.0,0014.98,0007.26,0006.38
2022-09-04 16:28:00,,0831.5,5.00,0.00,29.9,27.5,00.0,38.6,31.6,26.2,0000.0,0014.51,0007.27,0006.40
2022-09-04 16:29:00,,0831.5,5.00,0.00,29.8,27.8,00.0,38.6,31.6,26.3,0000.0,0013.60,0007.31,0006.42
2022-09-04 16:30:00,,0831.4,5.00,0.00,29.8,28.1,00.0,38.6,31.6,26.4,0000.0,0012.86,0007.38,0006.44
2022-09-04 16:31:00,,0831.4,5.00,0.00,29.9,28.3,00.0,38.6,31.7,25.9,0000.0,0012.46,0007.41,0006.46
2022-09-04 16:32:00,,0831.5,5.01,0.00,29.9,28.5,00.0,38.6,31.7,25.5,0000.0,0012.34,0007.38,0006.46
2022-09-04 16:33:00,,0831.4,5.01,0.00,29.9,28.6,00.0,38.6,31.7,25.3,0000.0,0012.11,0007.39,0006.47
2022-09-04 16:34:00,,0831.4,4.99,0.00,29.9,28.7,00.0,38.6,31.8,25.3,0000.0,0012.53,0007.44,0006.49
2022-09-04 16:35:00,,0831.5,5.01,0.00,30.0,28.8,00.0,38.6,31.9,25.4,0000.0,0013.47,0007.46,0006.50
2022-09-04 16:36:00,,0831.5,5.00,0.00,30.0,28.0,00.0,38.6,31.8,25.3,0000.0,0013.21,0007.45,0006.49
2022-09-04 16:37:00,,0831.5,5.00,0.00,29.9,27.0,00.0,38.6,31.7,24.9,0000.0,0014.46,0007.44,0006.48
2022-09-04 16:38:00,,0831.4,5.00,0.00,29.9,26.9,00.0,38.6,31.7,25.1,0000.0,0014.81,0007.44,0006.48
2022-09-04 16:39:00,,0831.4,5.01,0.00,29.8,27.1,00.0,38.5,31.6,25.4,0000.0,0015.21,0007.47,0006.49
2022-09-04 16:40:00,,0831.4,5.01,0.00,29.8,27.4,00.0,38.5,31.5,25.2,0000.0,0015.37,0007.45,0006.48
2022-09-04 16:41:00,,0831.3,4.99,0.00,29.8,27.8,00.0,38.5,31.5,25.4,0000.0,0015.99,0007.41,0006.46
2022-09-04 16:42:00,,0831.4,5.00,0.00,29.8,28.0,00.0,38.5,31.6,26.1,0000.0,0016.78,0007.40,0006.44
2022-09-04 16:43:00,,0831.4,5.00,0.00,29.8,28.3,00.0,38.5,31.6,25.8,0000.0,0016.93,0007.37,0006.43
2022-09-04 16:44:00,,0831.4,5.00,0.00,29.8,28.4,00.0,38.5,31.7,25.6,0000.0,0017.42,0007.40,0006.42
2022-09-04 16:45:00,,0831.3,5.01,0.00,29.8,28.6,00.0,38.5,31.7,25.5,0000.0,0017.23,0007.39,0006.40
2022-09-04 16:46:00,,0831.3,4.98,0.00,29.9,28.7,00.0,38.5,31.8,25.3,0000.0,0016.12,0007.35,0006.39
2022-09-04 16:47:00,,0831.3,5.01,0.00,29.9,28.8,00.0,38.6,31.8,25.3,0000.0,0015.73,0007.30,0006.39
2022-09-04 16:48:00,,0831.3,5.00,0.00,29.9,28.3,00.0,38.6,31.9,25.1,0000.0,0014.73,0007.33,0006.38
2022-09-04 16:49:00,,0831.3,4.98,0.00,29.9,27.2,00.0,38.6,31.6,25.0,0000.0,0014.10,0007.33,0006.38
2022-09-04 16:50:00,,0831.3,5.01,0.00,29.8,26.8,00.0,38.5,31.6,25.1,0000.0,0013.68,0007.28,0006.36
2022-09-04 16:51:00,,0831.3,5.00,0.00,29.8,27.1,00.0,38.5,31.5,24.5,0000.0,0014.70,0007.32,0006.36
2022-09-04 16:52:00,,0831.3,5.00,0.00,29.7,27.3,00.0,38.5,31.5,23.8,0000.0,0014.14,0007.26,0006.34
2022-09-04 16:53:00,,0831.2,4.99,0.00,29.7,27.7,00.0,38.4,31.5,24.2,0000.0,0013.91,0007.23,0006.33
2022-09-04 16:54:00,,0831.2,5.00,0.00,29.8,27.9,00.0,38.4,31.5,25.2,0000.0,0014.12,0007.23,0006.32
2022-09-04 16:55:00,,0831.2,5.01,0.00,29.8,28.2,00.0,38.5,31.6,25.0,0000.0,0013.84,0007.18,0006.29
2022-09-04 16:56:00,,0831.2,5.01,0.00,29.8,28.4,00.0,38.5,31.6,24.5,0000.0,0013.94,0007.17,0006.27
2022-09-04 16:57:00,,0831.2,4.98,0.00,29.8,28.5,00.0,38.5,31.7,25.0,0000.0,0013.85,0007.09,0006.25
2022-09-04 16:58:00,,0831.2,5.00,0.00,29.8,28.7,00.0,38.5,31.7,25.0,0000.0,0014.33,0007.10,0006.24
2022-09-04 16:59:00,,0831.1,5.01,0.00,29.9,28.7,00.0,38.5,31.8,25.2,0000.0,0014.61,0007.07,0006.23
